Time,TemperatureF,DewpointF,PressureIn,WindDirection,WindDirectionDegrees,WindSpeedMPH,WindSpeedGustMPH,Humidity,HourlyPrecipIn,Conditions,Clouds,dailyrainin,SoftwareType,DateUTC
2013-07-06 00:06:00,70.2,63.4,29.97,SSW,202,0.0,0.0,79,0.00,,,0.00,Wunderground v.1.15,2013-07-06 05:06:00,
2013-07-06 00:11:00,70.1,63.6,29.96,SSW,202,0.0,0.0,80,0.00,,,0.00,Wunderground v.1.15,2013-07-06 05:11:00,
2013-07-06 00:25:00,70.0,63.9,29.97,SSW,202,0.0,0.0,81,0.00,,,0.00,Wunderground v.1.15,2013-07-06 05:25:00,
2013-07-06 00:35:00,69.9,63.8,29.97,SSW,202,0.0,0.0,81,0.00,,,0.00,Wunderground v.1.15,2013-07-06 05:35:00,
2013-07-06 00:46:00,69.7,63.6,29.97,SSW,202,0.0,0.0,81,0.00,,,0.00,Wunderground v.1.15,2013-07-06 05:46:00,
2013-07-06 00:51:00,69.6,63.5,29.97,SSW,202,0.0,0.0,81,0.00,,,0.00,Wunderground v.1.15,2013-07-06 05:51:00,
2013-07-06 00:55:00,69.6,63.5,29.97,SSW,202,0.0,0.0,81,0.00,,,0.00,Wunderground v.1.15,2013-07-06 05:55:00,
2013-07-06 01:05:00,69.4,63.7,29.97,SSW,202,0.0,0.0,82,0.00,,,0.00,Wunderground v.1.15,2013-07-06 06:05:00,
2013-07-06 01:15:00,69.1,63.7,29.96,SSW,202,0.0,0.0,83,0.00,,,0.00,Wunderground v.1.15,2013-07-06 06:15:00,
2013-07-06 01:25:00,68.7,63.3,29.97,SSW,202,0.0,0.0,83,0.00,,,0.00,Wunderground v.1.15,2013-07-06 06:25:00,
2013-07-06 01:31:00,68.5,63.5,29.97,SSW,202,0.0,0.0,84,0.00,,,0.00,Wunderground v.1.15,2013-07-06 06:31:00,
2013-07-06 01:45:00,68.1,63.1,29.97,SSW,202,0.0,0.0,84,0.00,,,0.00,Wunderground v.1.15,2013-07-06 06:45:00,
2013-07-06 01:55:00,67.8,63.1,29.97,SSW,202,0.0,0.0,85,0.00,,,0.00,Wunderground v.1.15,2013-07-06 06:55:00,
2013-07-06 02:01:00,67.7,63.4,29.97,SSW,202,0.0,0.0,86,0.00,,,0.00,Wunderground v.1.15,2013-07-06 07:01:00,
2013-07-06 02:11:00,67.7,63.4,29.97,SSW,202,0.0,0.0,86,0.00,,,0.00,Wunderground v.1.15,2013-07-06 07:11:00,
2013-07-06 02:21:00,67.8,63.1,29.97,SSW,202,0.0,0.0,85,0.00,,,0.00,Wunderground v.1.15,2013-07-06 07:21:00,
2013-07-06 02:35:00,67.6,62.9,29.96,SSW,202,0.0,0.0,85,0.00,,,0.00,Wunderground v.1.15,2013-07-06 07:35:00,
2013-07-06 02:41:00,67.5,62.8,29.96,SSW,202,0.0,0.0,85,0.00,,,0.00,Wunderground v.1.15,2013-07-06 07:41:00,
2013-07-06 02:51:00,67.3,62.6,29.96,SSW,202,0.0,0.0,85,0.00,,,0.00,Wunderground v.1.15,2013-07-06 07:51:00,
2013-07-06 03:05:00,67.1,62.8,29.96,SSW,202,0.0,0.0,86,0.00,,,0.00,Wunderground v.1.15,2013-07-06 08:05:00,
2013-07-06 03:15:00,67.0,63.0,29.96,SSW,202,0.0,0.0,87,0.00,,,0.00,Wunderground v.1.15,2013-07-06 08:15:00,
2013-07-06 03:25:00,67.0,63.0,29.97,SSW,202,0.0,0.0,87,0.00,,,0.00,Wunderground v.1.15,2013-07-06 08:25:00,
2013-07-06 03:31:00,67.0,62.7,29.96,SSW,202,0.0,0.0,86,0.00,,,0.00,Wunderground v.1.15,2013-07-06 08:31:00,
2013-07-06 03:41:00,66.8,62.5,29.96,SSW,202,0.0,0.0,86,0.00,,,0.00,Wunderground v.1.15,2013-07-06 08:41:00,
2013-07-06 03:55:00,66.6,62.6,29.96,SSW,202,0.0,0.0,87,0.00,,,0.00,Wunderground v.1.15,2013-07-06 08:55:00,
2013-07-06 04:05:00,66.6,62.6,29.96,SSW,202,0.0,0.0,87,0.00,,,0.00,Wunderground v.1.15,2013-07-06 09:05:00,
2013-07-06 04:15:00,66.6,62.6,29.97,SSW,202,0.0,0.0,87,0.00,,,0.00,Wunderground v.1.15,2013-07-06 09:15:00,
2013-07-06 04:21:00,66.6,62.6,29.96,SSW,202,0.0,0.0,87,0.00,,,0.00,Wunderground v.1.15,2013-07-06 09:21:00,
2013-07-06 04:35:00,66.7,62.7,29.97,SSW,202,0.0,0.0,87,0.00,,,0.00,Wunderground v.1.15,2013-07-06 09:35:00,
2013-07-06 04:45:00,66.7,62.7,29.97,SSW,202,0.0,0.0,87,0.00,,,0.00,Wunderground v.1.15,2013-07-06 09:45:00,
2013-07-06 04:51:00,66.6,62.6,29.97,SSW,202,0.0,0.0,87,0.00,,,0.00,Wunderground v.1.15,2013-07-06 09:51:00,
2013-07-06 05:01:00,66.5,62.8,29.97,SSW,202,0.0,0.0,88,0.00,,,0.00,Wunderground v.1.15,2013-07-06 10:01:00,
2013-07-06 05:15:00,66.4,62.7,29.97,SSW,202,0.0,0.0,88,0.00,,,0.00,Wunderground v.1.15,2013-07-06 10:15:00,
2013-07-06 05:25:00,66.4,63.1,29.98,SSW,202,0.0,0.0,89,0.00,,,0.00,Wunderground v.1.15,2013-07-06 10:25:00,
2013-07-06 05:35:00,66.5,62.8,29.98,SSW,202,0.0,0.0,88,0.00,,,0.00,Wunderground v.1.15,2013-07-06 10:35:00,
2013-07-06 05:41:00,66.5,62.8,29.98,SSW,202,0.0,0.0,88,0.00,,,0.00,Wunderground v.1.15,2013-07-06 10:41:00,
2013-07-06 05:55:00,66.5,62.8,29.98,SSW,202,0.0,0.0,88,0.00,,,0.00,Wunderground v.1.15,2013-07-06 10:55:00,
2013-07-06 06:05:00,66.7,63.0,29.98,SSW,202,0.0,0.0,88,0.00,,,0.00,Wunderground v.1.15,2013-07-06 11:05:00,
2013-07-06 06:11:00,66.8,63.1,29.98,SSW,202,0.0,0.0,88,0.00,,,0.00,Wunderground v.1.15,2013-07-06 11:11:00,
2013-07-06 06:21:00,67.0,63.3,29.97,SSW,202,0.0,0.0,88,0.00,,,0.00,Wunderground v.1.15,2013-07-06 11:21:00,
2013-07-06 06:35:00,67.3,63.6,29.98,SSW,202,0.0,0.0,88,0.00,,,0.00,Wunderground v.1.15,2013-07-06 11:35:00,
2013-07-06 06:41:00,67.5,63.8,29.98,SSW,202,0.0,0.0,88,0.00,,,0.00,Wunderground v.1.15,2013-07-06 11:41:00,
2013-07-06 06:51:00,67.8,64.1,29.98,SSW,202,0.0,0.0,88,0.00,,,0.00,Wunderground v.1.15,2013-07-06 11:51:00,
2013-07-06 07:15:00,68.0,64.6,29.99,SSW,202,0.0,0.0,89,0.00,,,0.00,Wunderground v.1.15,2013-07-06 12:15:00,
2013-07-06 07:21:00,68.1,64.7,29.99,SSW,202,0.0,0.0,89,0.00,,,0.00,Wunderground v.1.15,2013-07-06 12:21:00,
2013-07-06 07:35:00,68.3,64.9,29.99,SSW,202,0.0,0.0,89,0.00,,,0.00,Wunderground v.1.15,2013-07-06 12:35:00,
2013-07-06 07:45:00,68.6,65.2,29.99,SSW,202,0.0,0.0,89,0.00,,,0.00,Wunderground v.1.15,2013-07-06 12:45:00,
2013-07-06 07:55:00,69.1,65.7,29.99,SSW,202,0.0,0.0,89,0.00,,,0.00,Wunderground v.1.15,2013-07-06 12:55:00,
2013-07-06 08:01:00,69.4,66.0,30.00,SSW,202,0.0,0.0,89,0.00,,,0.00,Wunderground v.1.15,2013-07-06 13:01:00,
2013-07-06 08:15:00,70.2,66.5,30.00,SSW,202,0.0,0.0,88,0.00,,,0.00,Wunderground v.1.15,2013-07-06 13:15:00,
2013-07-06 08:21:00,70.6,66.5,30.00,SSW,202,0.0,0.0,87,0.00,,,0.00,Wunderground v.1.15,2013-07-06 13:21:00,
2013-07-06 08:35:00,71.0,66.6,30.00,SSW,202,0.0,0.0,86,0.00,,,0.00,Wunderground v.1.15,2013-07-06 13:35:00,
2013-07-06 08:45:00,71.7,67.3,30.00,SSW,202,0.0,0.0,86,0.00,,,0.00,Wunderground v.1.15,2013-07-06 13:45:00,
2013-07-06 08:51:00,71.9,66.8,30.00,SSW,202,0.0,0.0,84,0.00,,,0.00,Wunderground v.1.15,2013-07-06 13:51:00,
2013-07-06 09:05:00,72.3,67.5,30.00,SSW,202,0.0,0.0,85,0.00,,,0.00,Wunderground v.1.15,2013-07-06 14:05:00,
2013-07-06 09:15:00,72.7,67.6,30.00,SSW,202,0.0,0.0,84,0.00,,,0.00,Wunderground v.1.15,2013-07-06 14:15:00,
2013-07-06 09:25:00,73.1,67.6,30.00,SSW,202,0.0,0.0,83,0.00,,,0.00,Wunderground v.1.15,2013-07-06 14:25:00,
2013-07-06 09:35:00,73.4,67.9,30.00,SSW,202,0.0,0.0,83,0.00,,,0.00,Wunderground v.1.15,2013-07-06 14:35:00,
2013-07-06 09:41:00,73.7,68.2,30.00,SSW,202,0.0,0.0,83,0.00,,,0.00,Wunderground v.1.15,2013-07-06 14:41:00,
2013-07-06 09:55:00,74.3,68.4,30.00,SSW,205,0.0,0.0,82,0.00,,,0.00,Wunderground v.1.15,2013-07-06 14:55:00,
2013-07-06 10:05:00,74.5,68.3,30.00,SW,215,0.0,0.0,81,0.00,,,0.00,Wunderground v.1.15,2013-07-06 15:05:00,
2013-07-06 10:15:00,75.1,68.5,30.00,SW,224,0.0,0.0,80,0.00,,,0.00,Wunderground v.1.15,2013-07-06 15:15:00,
2013-07-06 10:21:00,75.3,68.7,30.00,SW,224,0.0,0.0,80,0.00,,,0.00,Wunderground v.1.15,2013-07-06 15:21:00,
2013-07-06 10:31:00,75.9,68.5,30.00,East,82,0.0,0.0,78,0.00,,,0.00,Wunderground v.1.15,2013-07-06 15:31:00,
2013-07-06 10:45:00,76.6,69.2,30.00,ENE,59,0.0,0.0,78,0.00,,,0.00,Wunderground v.1.15,2013-07-06 15:45:00,
2013-07-06 10:51:00,77.0,68.5,30.00,ENE,59,0.0,0.0,75,0.00,,,0.00,Wunderground v.1.15,2013-07-06 15:51:00,
2013-07-06 11:05:00,78.3,69.3,30.00,ENE,57,0.0,0.0,74,0.00,,,0.00,Wunderground v.1.15,2013-07-06 16:05:00,
2013-07-06 11:11:00,79.5,69.7,30.00,NE,56,0.0,0.0,72,0.00,,,0.00,Wunderground v.1.15,2013-07-06 16:11:00,
2013-07-06 11:51:00,83.5,69.1,30.00,SSW,192,0.0,0.0,62,0.00,,,0.00,Wunderground v.1.15,2013-07-06 16:51:00,
2013-07-06 12:05:00,85.2,69.3,30.00,WSW,239,0.0,0.0,59,0.00,,,0.00,Wunderground v.1.15,2013-07-06 17:05:00,
2013-07-06 12:15:00,85.3,68.3,29.99,WNW,290,0.0,0.0,57,0.00,,,0.00,Wunderground v.1.15,2013-07-06 17:15:00,
2013-07-06 12:30:00,85.0,67.5,29.99,NW,304,0.0,0.0,56,0.00,,,0.00,Wunderground v.1.15,2013-07-06 17:30:00,
2013-07-06 12:41:00,86.0,68.5,29.98,West,276,0.0,1.0,56,0.00,,,0.00,Wunderground v.1.15,2013-07-06 17:41:00,
2013-07-06 13:01:00,88.6,68.7,29.98,South,169,0.0,0.0,52,0.00,,,0.00,Wunderground v.1.15,2013-07-06 18:01:00,
2013-07-06 13:25:00,89.6,67.9,29.97,South,181,0.0,3.0,49,0.00,,,0.00,Wunderground v.1.15,2013-07-06 18:25:00,
2013-07-06 13:51:00,90.8,66.5,29.96,SSW,194,1.0,1.0,45,0.00,,,0.00,Wunderground v.1.15,2013-07-06 18:51:00,
2013-07-06 14:05:00,89.6,66.7,29.96,SSE,167,1.0,1.0,47,0.00,,,0.00,Wunderground v.1.15,2013-07-06 19:05:00,
2013-07-06 14:35:00,89.7,66.8,29.95,SSW,200,0.0,0.0,47,0.00,,,0.00,Wunderground v.1.15,2013-07-06 19:35:00,
2013-07-06 14:45:00,90.5,66.9,29.94,SSE,168,1.0,1.0,46,0.00,,,0.00,Wunderground v.1.15,2013-07-06 19:45:00,
2013-07-06 14:51:00,90.3,66.1,29.94,South,186,1.0,1.0,45,0.00,,,0.00,Wunderground v.1.15,2013-07-06 19:51:00,
2013-07-06 15:05:00,90.5,67.5,29.93,South,186,0.0,1.0,47,0.00,,,0.00,Wunderground v.1.15,2013-07-06 20:05:00,
2013-07-06 15:15:00,91.1,68.1,29.93,SSW,195,1.0,1.0,47,0.00,,,0.00,Wunderground v.1.15,2013-07-06 20:15:00,
2013-07-06 15:31:00,90.1,68.4,29.93,WNW,286,0.0,3.0,49,0.00,,,0.00,Wunderground v.1.15,2013-07-06 20:31:00,
2013-07-06 15:45:00,91.7,68.0,29.93,SSE,164,1.0,1.0,46,0.00,,,0.00,Wunderground v.1.15,2013-07-06 20:45:00,
2013-07-06 15:55:00,90.5,68.1,29.93,SSW,203,1.0,2.0,48,0.00,,,0.00,Wunderground v.1.15,2013-07-06 20:55:00,
2013-07-06 16:01:00,90.4,67.4,29.93,SW,230,0.0,0.0,47,0.00,,,0.00,Wunderground v.1.15,2013-07-06 21:01:00,
2013-07-06 16:35:00,90.8,67.2,29.92,SW,219,0.0,2.0,46,0.00,,,0.00,Wunderground v.1.15,2013-07-06 21:35:00,
2013-07-06 17:05:00,91.0,67.3,29.92,SSW,207,1.0,1.0,46,0.00,,,0.00,Wunderground v.1.15,2013-07-06 22:05:00,
2013-07-06 17:16:00,90.6,67.0,29.91,NW,311,1.0,1.0,46,0.00,,,0.00,Wunderground v.1.15,2013-07-06 22:16:00,
2013-07-06 17:21:00,90.7,67.1,29.91,NW,307,1.0,1.0,46,0.00,,,0.00,Wunderground v.1.15,2013-07-06 22:21:00,
2013-07-06 17:36:00,90.4,66.2,29.91,NE,40,0.0,0.0,45,0.00,,,0.00,Wunderground v.1.15,2013-07-06 22:36:00,
2013-07-06 17:46:00,90.1,66.5,29.92,SW,225,0.0,0.0,46,0.00,,,0.00,Wunderground v.1.15,2013-07-06 22:46:00,
2013-07-06 17:56:00,90.7,67.1,29.91,SW,225,0.0,0.0,46,0.00,,,0.00,Wunderground v.1.15,2013-07-06 22:56:00,
2013-07-06 18:06:00,91.5,67.8,29.91,SW,225,0.0,0.0,46,0.00,,,0.00,Wunderground v.1.15,2013-07-06 23:06:00,
2013-07-06 18:11:00,91.4,67.1,29.91,SSW,209,0.0,0.0,45,0.00,,,0.00,Wunderground v.1.15,2013-07-06 23:11:00,
2013-07-06 18:21:00,90.5,66.9,29.91,SW,218,0.0,0.0,46,0.00,,,0.00,Wunderground v.1.15,2013-07-06 23:21:00,
2013-07-06 18:36:00,89.7,67.4,29.91,SW,219,0.0,0.0,48,0.00,,,0.00,Wunderground v.1.15,2013-07-06 23:36:00,
2013-07-06 18:55:00,88.8,67.2,29.92,SW,228,0.0,0.0,49,0.00,,,0.00,Wunderground v.1.15,2013-07-06 23:55:00,
2013-07-06 19:01:00,88.5,67.5,29.92,SW,228,0.0,0.0,50,0.00,,,0.00,Wunderground v.1.15,2013-07-07 00:01:00,
2013-07-06 19:16:00,87.1,67.3,29.92,West,268,0.0,0.0,52,0.00,,,0.00,Wunderground v.1.15,2013-07-07 00:16:00,
2013-07-06 19:35:00,84.9,66.9,29.92,WSW,246,0.0,0.0,55,0.00,,,0.00,Wunderground v.1.15,2013-07-07 00:35:00,
2013-07-06 19:45:00,84.6,67.2,29.92,WSW,245,0.0,0.0,56,0.00,,,0.00,Wunderground v.1.15,2013-07-07 00:45:00,
2013-07-06 19:55:00,84.0,67.1,29.93,WSW,246,0.0,0.0,57,0.00,,,0.00,Wunderground v.1.15,2013-07-07 00:55:00,
2013-07-06 20:01:00,83.6,67.3,29.92,WSW,246,0.0,0.0,58,0.00,,,0.00,Wunderground v.1.15,2013-07-07 01:01:00,
2013-07-06 20:16:00,82.6,66.8,29.93,WSW,246,0.0,0.0,59,0.00,,,0.00,Wunderground v.1.15,2013-07-07 01:16:00,
2013-07-06 20:26:00,81.7,66.9,29.93,WSW,245,0.0,0.0,61,0.00,,,0.00,Wunderground v.1.15,2013-07-07 01:26:00,
2013-07-06 20:35:00,80.9,67.1,29.94,WSW,246,0.0,0.0,63,0.00,,,0.00,Wunderground v.1.15,2013-07-07 01:35:00,
2013-07-06 20:56:00,79.2,66.9,29.94,WSW,245,0.0,0.0,66,0.00,,,0.00,Wunderground v.1.15,2013-07-07 01:56:00,
2013-07-06 21:01:00,78.8,66.5,29.95,WSW,246,0.0,0.0,66,0.00,,,0.00,Wunderground v.1.15,2013-07-07 02:01:00,
2013-07-06 21:16:00,77.7,66.3,29.95,WSW,246,0.0,0.0,68,0.00,,,0.00,Wunderground v.1.15,2013-07-07 02:16:00,
2013-07-06 21:25:00,77.2,66.2,29.95,WSW,245,0.0,0.0,69,0.00,,,0.00,Wunderground v.1.15,2013-07-07 02:25:00,
2013-07-06 21:31:00,77.0,66.5,29.95,WSW,245,0.0,0.0,70,0.00,,,0.00,Wunderground v.1.15,2013-07-07 02:31:00,
2013-07-06 21:46:00,76.5,66.0,29.96,WSW,246,0.0,0.0,70,0.00,,,0.00,Wunderground v.1.15,2013-07-07 02:46:00,
2013-07-06 22:06:00,75.7,66.0,29.96,WSW,246,0.0,0.0,72,0.00,,,0.00,Wunderground v.1.15,2013-07-07 03:06:00,
2013-07-06 22:15:00,75.6,66.3,29.96,WSW,246,0.0,0.0,73,0.00,,,0.00,Wunderground v.1.15,2013-07-07 03:15:00,
2013-07-06 22:35:00,75.4,66.5,29.97,WSW,246,0.0,0.0,74,0.00,,,0.00,Wunderground v.1.15,2013-07-07 03:35:00,
2013-07-06 22:51:00,75.1,66.6,29.96,WSW,246,0.0,0.0,75,0.00,,,0.00,Wunderground v.1.15,2013-07-07 03:51:00,
2013-07-06 23:01:00,74.8,66.3,29.97,WSW,246,0.0,0.0,75,0.00,,,0.00,Wunderground v.1.15,2013-07-07 04:01:00,
2013-07-06 23:15:00,74.3,66.2,29.97,WSW,245,0.0,0.0,76,0.00,,,0.00,Wunderground v.1.15,2013-07-07 04:15:00,
2013-07-06 23:25:00,74.1,66.0,29.97,WSW,246,0.0,0.0,76,0.00,,,0.00,Wunderground v.1.15,2013-07-07 04:25:00,
2013-07-06 23:35:00,73.9,66.2,29.96,WSW,245,0.0,0.0,77,0.00,,,0.00,Wunderground v.1.15,2013-07-07 04:35:00,
2013-07-06 23:41:00,73.7,66.0,29.96,WSW,246,0.0,0.0,77,0.00,,,0.00,Wunderground v.1.15,2013-07-07 04:41:00,
2013-07-06 23:45:00,73.6,66.3,29.96,WSW,246,0.0,0.0,78,0.00,,,0.00,Wunderground v.1.15,2013-07-07 04:45:00,
2013-07-06 23:51:00,73.4,66.1,29.97,WSW,246,0.0,0.0,78,0.00,,,0.00,Wunderground v.1.15,2013-07-07 04:51:00,